Weather in Podstrana

Croatia     43°28′57″N   16°35′02″E
temp.,
°C
wind,
m/s
gust,
m/s
humid.,
%
clouds,
%
prec.,
mm/h
press.,
hPa
HPBL,
m
8 august, mon
mon823:00+25ne555455 0.0 101355
02:00+23ne44637 0.0 101371
05:00+22ne546329 0.0 101373
08:00+26ne34505 0.1 1013170
11:00+31sw223610 0.1 10131139
14:00+29wsw444313 0.1 1013557
17:00+25ne56613 0.7 1014322
20:00+21ne567492 2.6 1015148
9 august, tue
tue923:00+21ne3372100 0.1 101677
02:00+21nne3370100 0.1 101574
05:00+21nne4468100 0.0 1014105
08:00+23ne4464100 0.0 1015208
11:00+29s124388 0.0 1015797
14:00+29sw4246100 0.0 1014640
17:00+29wsw4447100 0.0 1013690
20:00+23ne3373100 1.3 101454
10 august, wed
wed1023:00+23nnw2269100 0.0 101521
02:00+22nne4372100 0.0 101563
05:00+21ne4572100 0.0 101590
08:00+23ne4462100 0.0 1015197
11:00+29ene4542100 0.0 10151057
14:00+30n234131 0.0 10141786
17:00+30ne67350 0.0 10141119
20:00+26ne57410 0.0 1014227
11 august, thu
thu1123:00+23ne68460 0.0 1015205
02:00+20nne55490 0.0 101589
05:00+20ne56480 0.0 1015127
08:00+23ne45415 0.0 1015236
11:00+29ne452957 0.0 10141335
14:00+29sw1431100 0.0 10131872
17:00+27sw33373 0.0 1013692
20:00+25ne454011 0.0 101294
12 august, fri
fri1223:00+22ne4544100 0.0 101399
02:00+21ne444595 0.0 101373
05:00+19ne444770 0.0 101374
08:00+23ne333870 0.0 1014149
11:00+28ssw33325 0.0 10141050
14:00+27sw334472 0.0 1014717
17:00+27wsw22415 0.0 1014579
20:00+24nw22430 0.0 101315